User: anonymous   Login
Location: Unspecified
(0.0000°N, 0.0000°E)
Time: 05:17:23
(UTC+02:00)
Language:

Cosmos 2082 Rocket - Orbit

View from above orbital plane
View from above orbital plane
View from above satellite
View from above satellite

Ground track
Ground track

The orbit data is extracted from the following two-line orbital elements,

1 20625U 90046B   15089.21303500  .00000167  00000-0  11172-3 0  9990
2 20625 071.0004 049.0440 0016600 259.5031 193.7043 14.14571584283299
Epoch (UTC): 30 March 2015 05:06:46
Eccentricity: 0.0016600
inclination: 71.0004°
perigee height: 832 km
apogee height: 856 km
right ascension of ascending node: 49.0440°
argument of perigee: 259.5031°
revolutions per day: 14.14571584
mean anomaly at epoch: 193.7043°
orbit number at epoch: 28329

The dashed part of the orbit path shows where the satellite is in the earth's shadow,  

DLR